GW5584 Weather Reports


time (UTC)temp
C
wind
direction
speed
KPH
gust
KPH
rain 1hr
cm
rain 24hr
cm
rain mn
cm
humidity
%
barometer
mb
20260510095147 17 217 0.0 0.0 0.00 0.00 0.00 69 1015.7
20260510094645 17 0 0.0 1.6 0.00 0.00 0.00 68 1015.5
20260510094141 17 293 0.0 0.0 0.00 0.00 0.00 68 1015.6
20260510093638 17 311 0.0 1.6 0.00 0.00 0.00 67 1015.4
20260510093135 17 325 0.0 3.2 0.00 0.00 0.00 68 1015.4
20260510092631 17 322 0.0 0.0 0.00 0.00 0.00 67 1015.4
20260510092127 17 50 0.0 0.0 0.00 0.00 0.00 65 1015.3
20260510091623 17 229 0.0 0.0 0.00 0.00 0.00 66 1015.5
20260510091119 17 269 0.0 0.0 0.00 0.00 0.00 64 1015.4
20260510090616 17 351 1.6 1.6 0.00 0.00 0.00 65 1015.5
20260510090112 16 229 0.0 0.0 0.00 0.00 0.00 66 1015.2
20260510085608 16 131 0.0 0.0 0.00 0.00 0.00 67 1015.2
20260510085103 16 39 0.0 3.2 0.00 0.00 0.00 65 1015.3
20260510084600 16 173 0.0 0.0 0.00 0.00 0.00 67 1015.4
20260510084057 17 217 0.0 0.0 0.00 0.00 0.00 68 1015.3
20260510083553 17 272 0.0 1.6 0.00 0.00 0.00 67 1015.4
20260510083049 17 293 0.0 1.6 0.00 0.00 0.00 64 1015.3
20260510082547 16 323 1.6 1.6 0.00 0.00 0.00 65 1015.3
20260510082042 17 19 0.0 3.2 0.00 0.00 0.00 64 1014.9
20260510081537 17 196 3.2 3.2 0.00 0.00 0.00 64 1015.0
20260510081033 17 349 1.6 3.2 0.00 0.00 0.00 62 1014.9
20260510080532 17 340 1.6 1.6 0.00 0.00 0.00 64 1014.7
20260510080029 17 48 0.0 1.6 0.00 0.00 0.00 64 1014.6
20260510075526 17 230 0.0 3.2 0.00 0.00 0.00 62 1014.6
20260510075023 17 135 0.0 3.2 0.00 0.00 0.00 61 1014.8
20260510074521 17 279 0.0 3.2 0.00 0.00 0.00 59 1014.9
20260510074016 17 16 3.2 3.2 0.00 0.00 0.00 61 1014.8
20260510073512 18 13 3.2 3.2 0.00 0.00 0.00 58 1015.0
20260510073010 17 19 0.0 0.0 0.00 0.00 0.00 59 1014.6
20260510072506 17 129 0.0 0.0 0.00 0.00 0.00 61 1014.6
20260510072001 17 142 0.0 0.0 0.00 0.00 0.00 60 1014.5
20260510071458 17 135 0.0 0.0 0.00 0.00 0.00 60 1014.5
20260510070956 17 5 0.0 0.0 0.00 0.00 0.00 61 1014.5
20260510070453 17 229 0.0 1.6 0.00 0.00 0.00 59 1014.4
20260510065949 17 135 0.0 1.6 0.00 0.00 0.00 58 1014.5
20260510065446 17 130 0.0 0.0 0.00 0.00 0.00 59 1014.6
20260510064942 17 212 0.0 0.0 0.00 0.00 0.00 58 1014.6
20260510064439 17 157 0.0 1.6 0.00 0.00 0.00 58 1014.6
20260510063936 17 230 0.0 1.6 0.00 0.00 0.00 58 1014.7
20260510063432 17 212 0.0 0.0 0.00 0.00 0.00 60 1014.6
20260510062930 17 147 0.0 1.6 0.00 0.00 0.00 56 1014.6
20260510062425 17 230 0.0 1.6 0.00 0.00 0.00 57 1014.7
20260510061921 17 180 0.0 0.0 0.00 0.00 0.00 58 1014.7
20260510061417 18 129 0.0 0.0 0.00 0.00 0.00 58 1014.7
20260510060913 18 217 0.0 1.6 0.00 0.00 0.00 57 1014.8
20260510060410 18 223 1.6 1.6 0.00 0.00 0.00 57 1014.7
20260510055907 18 232 0.0 1.6 0.00 0.00 0.00 58 1014.8
20260510055402 18 229 0.0 1.6 0.00 0.00 0.00 56 1014.8
20260510054900 18 269 0.0 0.0 0.00 0.00 0.00 56 1014.8
20260510054356 18 212 0.0 1.6 0.00 0.00 0.00 57 1014.8
20260510053851 18 202 0.0 0.0 0.00 0.00 0.00 56 1014.8
20260510053347 18 37 0.0 0.0 0.00 0.00 0.00 57 1014.8
20260510052843 18 37 0.0 0.0 0.00 0.00 0.00 59 1015.0
20260510052338 18 103 0.0 0.0 0.00 0.00 0.00 59 1014.8
20260510051835 18 103 0.0 0.0 0.00 0.00 0.00 55 1014.8
20260510051332 18 50 0.0 0.0 0.00 0.00 0.00 56 1014.8
20260510050830 18 217 0.0 0.0 0.00 0.00 0.00 56 1014.6
20260510050326 18 206 0.0 0.0 0.00 0.00 0.00 60 1014.6
20260510045823 18 209 0.0 1.6 0.00 0.00 0.00 61 1014.7
20260510045319 17 199 0.0 1.6 0.00 0.00 0.00 62 1014.6
20260510044816 17 213 0.0 0.0 0.00 0.00 0.00 62 1014.5
20260510044313 18 217 0.0 1.6 0.00 0.00 0.00 60 1014.5
20260510043810 18 281 0.0 1.6 0.00 0.00 0.00 60 1014.7
20260510043306 18 224 0.0 0.0 0.00 0.00 0.00 59 1014.7
20260510042803 18 256 0.0 0.0 0.00 0.00 0.00 58 1014.7
20260510042259 17 230 0.0 0.0 0.00 0.00 0.00 58 1014.7
20260510041755 17 142 0.0 1.6 0.00 0.00 0.00 59 1014.6
20260510041253 17 164 0.0 0.0 0.00 0.00 0.00 59 1014.6
20260510040750 18 256 0.0 0.0 0.00 0.00 0.00 61 1014.5
20260510040242 17 212 0.0 0.0 0.00 0.00 0.00 59 1014.6
20260510035737 17 218 0.0 0.0 0.00 0.00 0.00 59 1014.3
20260510035233 17 119 0.0 0.0 0.00 0.00 0.00 60 1014.4
20260510034729 16 145 1.6 4.8 0.00 0.00 0.00 66 1014.3
20260510034227 17 227 0.0 1.6 0.00 0.00 0.00 64 1014.0
20260510033722 17 230 0.0 0.0 0.00 0.00 0.00 61 1014.1
20260510033221 18 235 0.0 0.0 0.00 0.00 0.00 61 1014.1
20260510032717 18 269 0.0 0.0 0.00 0.00 0.00 59 1014.0
20260510032213 18 309 1.6 1.6 0.00 0.00 0.00 59 1014.0
20260510031707 18 296 1.6 1.6 0.00 0.00 0.00 58 1013.8
20260510031204 19 6 0.0 1.6 0.00 0.00 0.00 56 1013.8
20260510030658 19 269 0.0 0.0 0.00 0.00 0.00 55 1013.9
20260510030156 18 264 0.0 1.6 0.00 0.00 0.00 57 1013.8
20260510025653 19 269 0.0 1.6 0.00 0.00 0.00 57 1013.9
20260510025150 18 256 0.0 1.6 0.00 0.00 0.00 57 1013.8
20260510024648 18 229 1.6 1.6 0.00 0.00 0.00 60 1013.6
20260510024144 18 235 0.0 1.6 0.00 0.00 0.00 59 1013.6
20260510023639 18 269 0.0 0.0 0.00 0.00 0.00 58 1013.5
20260510023137 18 209 0.0 1.6 0.00 0.00 0.00 58 1013.3
20260510022637 18 309 0.0 0.0 0.00 0.00 0.00 57 1013.1
20260510022132 18 164 0.0 3.2 0.00 0.00 0.00 58 1013.1
20260510021627 18 212 0.0 0.0 0.00 0.00 0.00 56 1012.9
20260510021125 18 201 0.0 0.0 0.00 0.00 0.00 59 1012.6
20260510020619 18 256 0.0 0.0 0.00 0.00 0.00 54 1012.8
20260510020115 18 246 0.0 0.0 0.00 0.00 0.00 56 1012.5
20260510015611 18 230 0.0 1.6 0.00 0.00 0.00 56 1012.5
20260510015108 18 225 0.0 1.6 0.00 0.00 0.00 57 1012.3
20260510014603 18 212 0.0 0.0 0.00 0.00 0.00 59 1012.3
20260510014101 18 201 1.6 1.6 0.00 0.00 0.00 58 1012.3
20260510013556 18 229 0.0 0.0 0.00 0.00 0.00 59 1012.2
20260510013052 19 217 0.0 0.0 0.00 0.00 0.00 61 1012.1
20260510012551 20 217 0.0 0.0 0.00 0.00 0.00 58 1012.0
20260510012048 20 217 0.0 0.0 0.00 0.00 0.00 57 1011.9
20260510011547 19 217 0.0 0.0 0.00 0.00 0.00 57 1011.8
20260510011043 19 217 0.0 0.0 0.00 0.00 0.00 58 1011.8
20260510010540 20 217 0.0 0.0 0.00 0.00 0.00 62 1011.8
20260510010037 20 230 0.0 0.0 0.00 0.00 0.00 60 1011.8
20260510005533 20 246 0.0 0.0 0.00 0.00 0.00 57 1011.7
20260510005031 20 230 0.0 1.6 0.00 0.00 0.00 60 1011.7
20260510004528 21 233 0.0 1.6 0.00 0.00 0.00 58 1011.7
20260510004026 21 246 0.0 0.0 0.00 0.00 0.00 53 1011.6
20260510003522 21 223 1.6 1.6 0.00 0.00 0.00 58 1011.6
20260510003018 21 214 0.0 1.6 0.00 0.00 0.00 57 1011.6
20260510002513 22 246 0.0 1.6 0.00 0.00 0.00 58 1011.7
20260510002011 22 242 0.0 1.6 0.00 0.00 0.00 57 1011.7
20260510001508 22 304 0.0 1.6 0.00 0.00 0.00 53 1011.5
20260510001006 22 283 0.0 0.0 0.00 0.00 0.00 52 1011.7
20260510000501 22 242 0.0 0.0 0.00 0.00 0.00 51 1011.5
20260509235958 22 304 0.0 0.0 0.00 0.00 0.00 49 1011.7
20260509235455 23 297 0.0 0.0 0.00 0.00 0.00 49 1011.6
20260509234951 23 297 0.0 0.0 0.00 0.00 0.00 47 1011.7
20260509234448 23 295 0.0 1.6 0.00 0.00 0.00 46 1011.7
20260509233946 23 242 0.0 0.0 0.00 0.00 0.00 47 1011.6
20260509233443 23 229 0.0 0.0 0.00 0.00 0.00 48 1011.6
20260509232939 23 269 0.0 1.6 0.00 0.00 0.00 46 1011.7
20260509232437 25 255 0.0 3.2 0.00 0.00 0.00 43 1011.8
20260509231932 25 309 0.0 1.6 0.00 0.00 0.00 41 1011.7
20260509231429 25 202 0.0 3.2 0.00 0.00 0.00 40 1011.8
20260509230928 25 180 0.0 1.6 0.00 0.00 0.00 43 1011.6
20260509230424 25 167 1.6 3.2 0.00 0.00 0.00 39 1011.8
20260509225920 25 249 0.0 3.2 0.00 0.00 0.00 39 1011.6
20260509225417 25 34 0.0 3.2 0.00 0.00 0.00 39 1011.6
20260509224914 26 44 3.2 3.2 0.00 0.00 0.00 37 1011.7
20260509224413 26 343 0.0 3.2 0.00 0.00 0.00 37 1011.5
20260509223911 27 14 3.2 4.8 0.00 0.00 0.00 35 1011.7
20260509223408 27 102 0.0 3.2 0.00 0.00 0.00 35 1011.8
20260509222905 28 339 1.6 3.2 0.00 0.00 0.00 33 1011.6
20260509222400 27 322 0.0 3.2 0.00 0.00 0.00 33 1011.6
20260509221855 27 255 0.0 3.2 0.00 0.00 0.00 33 1011.5
20260509221353 27 317 0.0 4.8 0.00 0.00 0.00 32 1011.6
20260509220849 28 359 3.2 3.2 0.00 0.00 0.00 31 1011.5
20260509220345 28 212 0.0 3.2 0.00 0.00 0.00 33 1011.8
20260509215840 27 213 3.2 3.2 0.00 0.00 0.00 32 1011.7
20260509215337 27 313 4.8 4.8 0.00 0.00 0.00 33 1011.7
20260509214834 27 245 1.6 6.4 0.00 0.00 0.00 32 1011.8
20260509214331 27 334 3.2 4.8 0.00 0.00 0.00 31 1011.7
20260509213829 27 37 1.6 4.8 0.00 0.00 0.00 31 1011.8
20260509213324 27 184 1.6 6.4 0.00 0.00 0.00 34 1011.8
20260509212821 27 184 3.2 4.8 0.00 0.00 0.00 33 1011.9
20260509212319 27 214 0.0 4.8 0.00 0.00 0.00 32 1012.0
20260509211814 27 138 8.0 12.9 0.00 0.00 0.00 31 1011.9
20260509211311 27 142 4.8 4.8 0.00 0.00 0.00 36 1011.8
20260509210808 27 338 4.8 4.8 0.00 0.00 0.00 31 1011.9
20260509210305 28 102 0.0 6.4 0.00 0.00 0.00 32 1012.0
20260509205804 27 24 4.8 8.0 0.00 0.00 0.00 29 1012.1
20260509205300 27 200 1.6 4.8 0.00 0.00 0.00 31 1011.9
20260509204756 27 277 3.2 9.7 0.00 0.00 0.00 31 1012.0
20260509204252 27 0 1.6 6.4 0.00 0.00 0.00 35 1012.0
20260509203748 27 263 0.0 4.8 0.00 0.00 0.00 30 1011.9
20260509203246 27 272 3.2 6.4 0.00 0.00 0.00 32 1012.1
20260509202742 26 302 3.2 3.2 0.00 0.00 0.00 37 1012.1
20260509202238 25 316 1.6 6.4 0.00 0.00 0.00 36 1012.2
20260509201732 26 298 3.2 3.2 0.00 0.00 0.00 34 1012.3
20260509201229 26 172 1.6 4.8 0.00 0.00 0.00 36 1012.4
20260509200726 27 151 3.2 6.4 0.00 0.00 0.00 29 1012.4
20260509200221 28 307 3.2 4.8 0.00 0.00 0.00 33 1012.4
20260509195717 27 233 3.2 11.3 0.00 0.00 0.00 36 1012.4
20260509195213 27 301 3.2 6.4 0.00 0.00 0.00 34 1012.4
20260509194712 27 242 0.0 6.4 0.00 0.00 0.00 37 1012.5
20260509194209 27 349 3.2 6.4 0.00 0.00 0.00 32 1012.6
20260509193706 27 272 1.6 6.4 0.00 0.00 0.00 35 1012.6
20260509193206 27 191 1.6 4.8 0.00 0.00 0.00 35 1012.8
20260509192703 27 271 3.2 4.8 0.00 0.00 0.00 34 1012.8
20260509192158 27 36 1.6 11.3 0.00 0.00 0.00 34 1012.8
20260509191653 26 220 4.8 8.0 0.00 0.00 0.00 31 1012.6
20260509191150 27 126 0.0 6.4 0.00 0.00 0.00 30 1012.8
20260509190646 27 208 1.6 6.4 0.00 0.00 0.00 34 1012.6
20260509190143 27 348 1.6 6.4 0.00 0.00 0.00 31 1012.9
20260509185641 27 314 0.0 6.4 0.00 0.00 0.00 30 1013.0
20260509185137 27 5 3.2 8.0 0.00 0.00 0.00 30 1013.0
20260509184635 26 188 1.6 8.0 0.00 0.00 0.00 31 1012.8
20260509184131 27 233 4.8 6.4 0.00 0.00 0.00 33 1013.0
20260509183628 27 255 4.8 4.8 0.00 0.00 0.00 27 1012.9
20260509183123 27 150 0.0 8.0 0.00 0.00 0.00 30 1012.8
20260509182619 27 154 1.6 4.8 0.00 0.00 0.00 33 1012.8
20260509182117 27 158 3.2 6.4 0.00 0.00 0.00 29 1012.5
20260509181615 27 169 1.6 6.4 0.00 0.00 0.00 31 1012.8
20260509181112 27 275 1.6 8.0 0.00 0.00 0.00 31 1012.8
20260509180608 26 332 3.2 6.4 0.00 0.00 0.00 30 1012.8
20260509180105 26 215 4.8 6.4 0.00 0.00 0.00 31 1012.6
20260509175600 26 50 4.8 6.4 0.00 0.00 0.00 32 1013.0
20260509175058 26 126 4.8 8.0 0.00 0.00 0.00 34 1013.0
20260509174554 27 305 3.2 4.8 0.00 0.00 0.00 28 1012.9
20260509174049 27 337 3.2 3.2 0.00 0.00 0.00 30 1012.8
20260509173549 26 238 1.6 3.2 0.00 0.00 0.00 35 1013.0
20260509173046 26 84 1.6 4.8 0.00 0.00 0.00 31 1012.9
20260509172543 26 191 4.8 6.4 0.00 0.00 0.00 35 1013.0
20260509172039 26 80 0.0 6.4 0.00 0.00 0.00 34 1013.1
20260509171535 26 50 1.6 6.4 0.00 0.00 0.00 35 1013.0
20260509171032 26 141 0.0 4.8 0.00 0.00 0.00 39 1013.1
20260509170527 26 343 4.8 4.8 0.00 0.00 0.00 36 1013.1
20260509170023 26 277 3.2 6.4 0.00 0.00 0.00 35 1013.2
20260509165522 26 98 1.6 8.0 0.00 0.00 0.00 33 1013.0
20260509165018 26 51 3.2 4.8 0.00 0.00 0.00 39 1013.2
20260509164514 26 39 3.2 4.8 0.00 0.00 0.00 43 1013.1
20260509164009 25 6 1.6 6.4 0.00 0.00 0.00 41 1013.1
20260509163508 25 177 3.2 6.4 0.00 0.00 0.00 43 1013.2
20260509163002 25 338 0.0 6.4 0.00 0.00 0.00 42 1013.1
20260509162500 26 177 6.4 8.0 0.00 0.00 0.00 43 1013.1
20260509161956 25 23 4.8 4.8 0.00 0.00 0.00 42 1013.1
20260509161453 25 322 3.2 8.0 0.00 0.00 0.00 45 1013.1
20260509160947 25 13 1.6 8.0 0.00 0.00 0.00 46 1012.9
20260509160444 25 149 3.2 8.0 0.00 0.00 0.00 44 1013.1
20260509155939 25 19 1.6 3.2 0.00 0.00 0.00 45 1013.1
20260509155436 25 194 3.2 4.8 0.00 0.00 0.00 45 1012.9
20260509154932 25 200 3.2 6.4 0.00 0.00 0.00 47 1013.0
20260509154428 25 166 0.0 3.2 0.00 0.00 0.00 49 1012.9
20260509153926 24 43 1.6 6.4 0.00 0.00 0.00 48 1012.9
20260509153423 23 165 4.8 4.8 0.00 0.00 0.00 52 1012.8
20260509152920 23 57 0.0 4.8 0.00 0.00 0.00 52 1012.9
20260509152415 23 40 3.2 4.8 0.00 0.00 0.00 53 1012.8
20260509151913 22 24 6.4 6.4 0.00 0.00 0.00 59 1012.9
20260509151408 22 47 3.2 4.8 0.00 0.00 0.00 57 1013.0
20260509150907 22 343 3.2 8.0 0.00 0.00 0.00 60 1013.2
20260509150404 22 165 1.6 3.2 0.00 0.00 0.00 62 1013.0
20260509145903 22 326 0.0 4.8 0.00 0.00 0.00 60 1012.9
20260509145402 21 326 4.8 8.0 0.00 0.00 0.00 63 1013.0
20260509144858 22 24 3.2 3.2 0.00 0.00 0.00 62 1013.0
20260509144355 21 142 0.0 8.0 0.00 0.00 0.00 63 1013.0
20260509143852 21 121 0.0 4.8 0.00 0.00 0.00 68 1013.1
20260509143349 21 157 6.4 6.4 0.00 0.00 0.00 70 1013.1
20260509142846 20 6 3.2 6.4 0.00 0.00 0.00 70 1013.0
20260509142342 20 69 4.8 4.8 0.00 0.00 0.00 70 1012.9
20260509141838 20 197 1.6 3.2 0.00 0.00 0.00 72 1012.9
20260509141335 20 185 3.2 3.2 0.00 0.00 0.00 72 1012.8
20260509140831 19 190 1.6 4.8 0.00 0.00 0.00 77 1012.8
20260509140328 19 160 0.0 4.8 0.00 0.00 0.00 75 1012.9
20260509135827 18 199 1.6 4.8 0.00 0.00 0.00 79 1012.5
20260509135324 18 132 8.0 8.0 0.00 0.00 0.00 79 1012.5
20260509134821 18 173 4.8 6.4 0.00 0.00 0.00 79 1012.5
20260509134318 18 134 3.2 4.8 0.00 0.00 0.00 79 1012.3
20260509133815 18 164 1.6 4.8 0.00 0.00 0.00 81 1012.4
20260509133311 17 92 1.6 3.2 0.00 0.00 0.00 80 1012.3
20260509132810 17 345 1.6 4.8 0.00 0.00 0.00 80 1012.0
20260509132309 17 38 3.2 6.4 0.00 0.00 0.00 82 1012.0
20260509131805 16 50 3.2 6.4 0.00 0.00 0.00 84 1012.1
20260509131301 16 339 0.0 3.2 0.00 0.00 0.00 84 1012.1
20260509130758 16 352 1.6 3.2 0.00 0.00 0.00 85 1012.2
20260509130254 16 16 1.6 3.2 0.00 0.00 0.00 85 1012.0
20260509125750 16 158 0.0 3.2 0.00 0.00 0.00 86 1012.2
20260509125247 15 263 1.6 8.0 0.00 0.00 0.00 87 1012.1
20260509124744 15 97 3.2 3.2 0.00 0.00 0.00 88 1012.0
20260509124240 15 234 0.0 3.2 0.00 0.00 0.00 87 1012.2
20260509123738 15 29 0.0 3.2 0.00 0.00 0.00 88 1011.9
20260509123235 15 64 3.2 3.2 0.00 0.00 0.00 89 1012.0
20260509122731 14 248 0.0 1.6 0.00 0.00 0.00 90 1012.0
20260509122228 14 194 0.0 3.2 0.00 0.00 0.00 90 1011.8
20260509121725 13 89 0.0 3.2 0.00 0.00 0.00 90 1011.9
20260509121222 13 103 0.0 1.6 0.00 0.00 0.00 91 1012.0
20260509120721 13 147 0.0 3.2 0.00 0.00 0.00 91 1012.0
20260509120218 13 129 0.0 3.2 0.00 0.00 0.00 91 1012.0
20260509115715 13 197 0.0 3.2 0.00 0.00 0.00 91 1011.9
20260509115213 13 236 3.2 3.2 0.00 0.00 0.00 92 1011.8
20260509114711 13 293 0.0 3.2 0.00 0.00 0.00 92 1012.1
20260509114209 13 183 0.0 3.2 0.05 0.00 0.00 92 1011.7
20260509113708 12 166 0.0 3.2 0.05 0.00 0.00 93 1011.6
20260509113204 12 147 0.0 4.8 0.00 0.00 0.00 93 1011.7
20260509112701 12 66 0.0 3.2 0.00 0.00 0.00 93 1011.6
20260509112158 12 205 0.0 3.2 0.00 0.00 0.00 93 1011.5
20260509111655 12 150 3.2 3.2 0.00 0.00 0.00 93 1011.4
20260509111152 12 132 3.2 3.2 0.00 0.00 0.00 93 1011.4
20260509110649 12 152 1.6 3.2 0.00 0.00 0.00 93 1011.3
20260509110146 12 159 0.0 3.2 0.00 0.00 0.00 93 1011.4
20260509105644 12 156 0.0 1.6 0.00 0.00 0.00 93 1011.2
20260509105141 12 71 1.6 4.8 0.00 0.00 0.00 92 1011.3
20260509104638 12 13 0.0 1.6 0.00 0.00 0.00 92 1011.4
20260509104135 12 193 0.0 1.6 0.00 0.00 0.00 92 1011.3
20260509103633 12 150 0.0 1.6 0.00 0.00 0.00 92 1011.2
20260509103131 12 286 0.0 3.2 0.00 0.00 0.00 93 1011.1
20260509102628 12 88 0.0 3.2 0.00 0.00 0.00 93 1011.3
20260509102125 12 145 0.0 1.6 0.00 0.00 0.00 93 1011.3
20260509101621 12 157 0.0 3.2 0.00 0.00 0.00 93 1011.4
20260509101118 12 331 0.0 0.0 0.00 0.00 0.00 93 1011.4
20260509100615 12 252 0.0 1.6 0.00 0.00 0.00 93 1011.3
20260509100112 12 73 1.6 1.6 0.00 0.00 0.00 92 1011.3
20260509095608 12 127 1.6 3.2 0.00 0.00 0.00 92 1011.3